Location: Fishcreek Rd Observing Site
(41.1865°N, 81.4271°W)
Time: 05:08:26
(UTC-05:00)

Hubble Space Telescope - Pass Details

Date: 21 November 2019
Orbit: 536 x 540 km, 28.5° (Epoch: 12 December)

Event Time Altitude Azimuth Distance (km) Brightness Sun altitude
Rises 19:04:44 0° 234° (SW) 2,668 5.3 -22.8°
Reaches altitude 10° 19:07:57 10° 207° (SSW) 1,779 3.8 -23.4°
Maximum altitude 19:10:02 14° 177° (S) 1,562 3.1 -23.8°
Enters shadow 19:10:04 14° 176° (S) 1,562 3.1 -23.8°
